| time (UTC) | temp C | wind direction | speed KPH | gust KPH | rain 1hr cm | rain 24hr cm | rain mn cm | humidity % | barometer mb |
| 20260510192731 | 21 | 268 | 3.2 | 17.7 | 0.00 | 0.00 | 0.00 | 72 | 1010.1 |
| 20260510192132 | 21 | 268 | 3.2 | 17.7 | 0.00 | 0.00 | 0.00 | 72 | 1010.1 |
| 20260510191534 | 21 | 268 | 3.2 | 17.7 | 0.00 | 0.00 | 0.00 | 72 | 1010.1 |
| 20260510190926 | 21 | 267 | 11.3 | 20.9 | 0.00 | 0.00 | 0.00 | 74 | 1010.1 |
| 20260510190319 | 21 | 267 | 11.3 | 20.9 | 0.00 | 0.00 | 0.00 | 74 | 1010.1 |
| 20260510185121 | 21 | 252 | 8.0 | 20.9 | 0.00 | 0.00 | 0.00 | 74 | 1010.1 |
| 20260510184544 | 21 | 252 | 8.0 | 20.9 | 0.00 | 0.00 | 0.00 | 74 | 1010.1 |
| 20260510183943 | 21 | 254 | 9.7 | 16.1 | 0.00 | 0.00 | 0.00 | 71 | 1010.1 |
| 20260510183349 | 21 | 254 | 9.7 | 16.1 | 0.00 | 0.00 | 0.00 | 71 | 1010.1 |
| 20260510182738 | 21 | 267 | 9.7 | 22.5 | 0.00 | 0.00 | 0.00 | 71 | 1010.1 |
| 20260510182115 | 21 | 267 | 9.7 | 22.5 | 0.00 | 0.00 | 0.00 | 71 | 1010.1 |
| 20260510181544 | 21 | 267 | 9.7 | 22.5 | 0.00 | 0.00 | 0.00 | 71 | 1010.1 |
| 20260510180934 | 21 | 277 | 9.7 | 16.1 | 0.00 | 0.00 | 0.00 | 71 | 1009.8 |
| 20260510180317 | 21 | 277 | 9.7 | 16.1 | 0.00 | 0.00 | 0.00 | 71 | 1009.8 |
| 20260510175741 | 20 | 273 | 4.8 | 14.5 | 0.00 | 0.00 | 0.00 | 74 | 1009.8 |
| 20260510175152 | 20 | 273 | 4.8 | 14.5 | 0.00 | 0.00 | 0.00 | 74 | 1009.8 |
| 20260510173950 | 20 | 290 | 4.8 | 14.5 | 0.00 | 0.00 | 0.00 | 77 | 1009.8 |
| 20260510173326 | 20 | 290 | 4.8 | 14.5 | 0.00 | 0.00 | 0.00 | 77 | 1009.8 |
| 20260510172724 | 20 | 265 | 9.7 | 17.7 | 0.00 | 0.00 | 0.00 | 74 | 1009.8 |
| 20260510172111 | 20 | 265 | 9.7 | 17.7 | 0.00 | 0.00 | 0.00 | 74 | 1009.8 |
| 20260510170336 | 19 | 257 | 4.8 | 14.5 | 0.00 | 0.00 | 0.00 | 76 | 1009.8 |
| 20260510165751 | 19 | 268 | 8.0 | 12.9 | 0.00 | 0.00 | 0.00 | 75 | 1009.8 |
| 20260510164545 | 20 | 243 | 8.0 | 14.5 | 0.00 | 0.00 | 0.00 | 74 | 1009.8 |
| 20260510163944 | 20 | 243 | 8.0 | 14.5 | 0.00 | 0.00 | 0.00 | 74 | 1009.8 |
| 20260510162725 | 20 | 256 | 8.0 | 19.3 | 0.00 | 0.00 | 0.00 | 74 | 1009.8 |
| 20260510161529 | 18 | 249 | 6.4 | 12.9 | 0.00 | 0.00 | 0.00 | 74 | 1009.8 |
| 20260510160950 | 18 | 249 | 6.4 | 12.9 | 0.00 | 0.00 | 0.00 | 74 | 1009.8 |
| 20260510155736 | 18 | 242 | 6.4 | 8.0 | 0.00 | 0.00 | 0.00 | 78 | 1009.4 |
| 20260510155150 | 18 | 242 | 6.4 | 8.0 | 0.00 | 0.00 | 0.00 | 78 | 1009.4 |
| 20260510154523 | 19 | 266 | 3.2 | 11.3 | 0.00 | 0.00 | 0.00 | 76 | 1009.8 |
| 20260510153949 | 19 | 266 | 3.2 | 11.3 | 0.00 | 0.00 | 0.00 | 76 | 1009.8 |
| 20260510153322 | 19 | 266 | 3.2 | 11.3 | 0.00 | 0.00 | 0.00 | 76 | 1009.8 |
| 20260510152734 | 20 | 246 | 6.4 | 12.9 | 0.00 | 0.00 | 0.00 | 70 | 1009.4 |
| 20260510152149 | 20 | 246 | 6.4 | 12.9 | 0.00 | 0.00 | 0.00 | 70 | 1009.4 |
| 20260510151535 | 20 | 163 | 0.0 | 8.0 | 0.00 | 0.00 | 0.00 | 70 | 1008.8 |
| 20260510150914 | 20 | 163 | 0.0 | 8.0 | 0.00 | 0.00 | 0.00 | 70 | 1008.8 |
| 20260510150339 | 20 | 163 | 0.0 | 8.0 | 0.00 | 0.00 | 0.00 | 70 | 1008.8 |
| 20260510145717 | 20 | 270 | 8.0 | 14.5 | 0.00 | 0.00 | 0.00 | 69 | 1009.1 |
| 20260510145138 | 20 | 270 | 8.0 | 14.5 | 0.00 | 0.00 | 0.00 | 69 | 1009.1 |
| 20260510144510 | 20 | 257 | 6.4 | 17.7 | 0.00 | 0.00 | 0.00 | 70 | 1009.1 |
| 20260510143927 | 20 | 257 | 6.4 | 17.7 | 0.00 | 0.00 | 0.00 | 70 | 1009.1 |
| 20260510143335 | 20 | 257 | 6.4 | 17.7 | 0.00 | 0.00 | 0.00 | 70 | 1009.1 |
| 20260510142434 | 20 | 134 | 3.2 | 14.5 | 0.00 | 0.00 | 0.00 | 69 | 1009.1 |
| 20260510141819 | 20 | 134 | 3.2 | 14.5 | 0.00 | 0.00 | 0.00 | 69 | 1009.1 |
| 20260510141215 | 20 | 253 | 4.8 | 12.9 | 0.00 | 0.00 | 0.00 | 73 | 1008.8 |
| 20260510140608 | 20 | 253 | 4.8 | 12.9 | 0.00 | 0.00 | 0.00 | 73 | 1008.8 |
| 20260510140010 | 18 | 173 | 1.6 | 12.9 | 0.00 | 0.00 | 0.00 | 74 | 1009.1 |
| 20260510133021 | 17 | 213 | 0.0 | 8.0 | 0.00 | 0.00 | 0.00 | 82 | 1008.8 |
| 20260510132422 | 17 | 213 | 0.0 | 8.0 | 0.00 | 0.00 | 0.00 | 82 | 1008.8 |
| 20260510131848 | 17 | 213 | 0.0 | 8.0 | 0.00 | 0.00 | 0.00 | 82 | 1008.8 |
| 20260510131223 | 15 | 241 | 0.0 | 0.0 | 0.00 | 0.00 | 0.00 | 92 | 1008.8 |
| 20260510130037 | 15 | 241 | 0.0 | 0.0 | 0.00 | 0.00 | 0.00 | 92 | 1008.8 |
| 20260510124814 | 14 | 241 | 0.0 | 4.8 | 0.00 | 0.00 | 0.00 | 97 | 1008.8 |
| 20260510124228 | 13 | 79 | 1.6 | 3.2 | 0.00 | 0.00 | 0.00 | 100 | 1008.4 |
| 20260510123639 | 13 | 79 | 1.6 | 3.2 | 0.00 | 0.00 | 0.00 | 100 | 1008.4 |
| 20260510123036 | 13 | 79 | 1.6 | 3.2 | 0.00 | 0.00 | 0.00 | 100 | 1008.4 |
| 20260510122415 | 11 | 54 | 0.0 | 0.0 | 0.00 | 0.00 | 0.00 | 99 | 1008.4 |
| 20260510121248 | 11 | 17 | 0.0 | 0.0 | 0.00 | 0.00 | 0.00 | 99 | 1008.4 |
| 20260510120608 | 11 | 17 | 0.0 | 0.0 | 0.00 | 0.00 | 0.00 | 99 | 1008.4 |
| 20260510120024 | 11 | 17 | 0.0 | 0.0 | 0.00 | 0.00 | 0.00 | 99 | 1008.4 |
| 20260510114851 | 10 | 18 | 0.0 | 0.0 | 0.00 | 0.00 | 0.00 | 99 | 1008.4 |
| 20260510114220 | 10 | 183 | 0.0 | 0.0 | 0.00 | 0.00 | 0.00 | 99 | 1008.1 |
| 20260510113019 | 10 | 183 | 0.0 | 0.0 | 0.00 | 0.00 | 0.00 | 99 | 1008.1 |
| 20260510112420 | 9 | 116 | 0.0 | 0.0 | 0.00 | 0.00 | 0.00 | 98 | 1007.7 |
| 20260510111840 | 9 | 116 | 0.0 | 0.0 | 0.00 | 0.00 | 0.00 | 98 | 1007.7 |
| 20260510110646 | 9 | 116 | 0.0 | 0.0 | 0.00 | 0.00 | 0.00 | 98 | 1007.4 |
| 20260510110028 | 9 | 116 | 0.0 | 0.0 | 0.00 | 0.00 | 0.00 | 98 | 1007.4 |
| 20260510105429 | 9 | 116 | 0.0 | 0.0 | 0.00 | 0.00 | 0.00 | 98 | 1007.4 |
| 20260510104832 | 9 | 116 | 0.0 | 0.0 | 0.00 | 0.00 | 0.00 | 98 | 1007.4 |
| 20260510103935 | 9 | 116 | 0.0 | 1.6 | 0.00 | 0.00 | 0.00 | 98 | 1007.1 |
| 20260510103324 | 9 | 116 | 0.0 | 1.6 | 0.00 | 0.00 | 0.00 | 98 | 1007.1 |
| 20260510102717 | 9 | 160 | 0.0 | 0.0 | 0.00 | 0.00 | 0.00 | 98 | 1007.1 |
| 20260510102142 | 9 | 160 | 0.0 | 0.0 | 0.00 | 0.00 | 0.00 | 98 | 1007.1 |
| 20260510101511 | 9 | 160 | 0.0 | 0.0 | 0.00 | 0.00 | 0.00 | 98 | 1007.1 |
| 20260510100351 | 8 | 161 | 0.0 | 0.0 | 0.00 | 0.00 | 0.00 | 98 | 1007.1 |
| 20260510095710 | 8 | 89 | 0.0 | 0.0 | 0.00 | 0.00 | 0.00 | 97 | 1006.7 |
| 20260510095139 | 8 | 89 | 0.0 | 0.0 | 0.00 | 0.00 | 0.00 | 97 | 1006.7 |
| 20260510094539 | 8 | 89 | 0.0 | 0.0 | 0.00 | 0.00 | 0.00 | 97 | 1006.7 |
| 20260510093908 | 8 | 89 | 0.0 | 0.0 | 0.00 | 0.00 | 0.00 | 97 | 1006.4 |
| 20260510093327 | 8 | 89 | 0.0 | 0.0 | 0.00 | 0.00 | 0.00 | 97 | 1006.4 |
| 20260510092725 | 9 | 89 | 0.0 | 0.0 | 0.00 | 0.00 | 0.00 | 97 | 1006.4 |
| 20260510092129 | 9 | 89 | 0.0 | 0.0 | 0.00 | 0.00 | 0.00 | 97 | 1006.4 |
| 20260510091537 | 9 | 89 | 0.0 | 0.0 | 0.00 | 0.00 | 0.00 | 97 | 1006.4 |
| 20260510090909 | 9 | 89 | 0.0 | 0.0 | 0.00 | 0.00 | 0.00 | 97 | 1006.4 |
| 20260510090341 | 9 | 89 | 0.0 | 0.0 | 0.00 | 0.00 | 0.00 | 97 | 1006.4 |
| 20260510085716 | 10 | 89 | 0.0 | 0.0 | 0.00 | 0.00 | 0.00 | 97 | 1006.0 |
| 20260510083948 | 10 | 89 | 0.0 | 0.0 | 0.00 | 0.00 | 0.00 | 98 | 1006.0 |
| 20260510083352 | 10 | 89 | 0.0 | 0.0 | 0.00 | 0.00 | 0.00 | 98 | 1006.0 |
| 20260510082744 | 10 | 89 | 0.0 | 0.0 | 0.00 | 0.00 | 0.00 | 97 | 1006.0 |
| 20260510082119 | 10 | 89 | 0.0 | 0.0 | 0.00 | 0.00 | 0.00 | 97 | 1006.0 |
| 20260510081549 | 10 | 89 | 0.0 | 0.0 | 0.00 | 0.00 | 0.00 | 97 | 1006.0 |
| 20260510080918 | 10 | 89 | 0.0 | 0.0 | 0.00 | 0.00 | 0.00 | 97 | 1006.0 |
| 20260510080327 | 10 | 89 | 0.0 | 0.0 | 0.00 | 0.00 | 0.00 | 97 | 1006.0 |
| 20260510075750 | 10 | 89 | 0.0 | 0.0 | 0.00 | 0.00 | 0.00 | 97 | 1006.0 |
| 20260510074542 | 10 | 89 | 0.0 | 3.2 | 0.00 | 0.00 | 0.00 | 97 | 1005.7 |
| 20260510073942 | 10 | 89 | 0.0 | 3.2 | 0.00 | 0.00 | 0.00 | 97 | 1005.7 |
| 20260510073347 | 10 | 89 | 0.0 | 3.2 | 0.00 | 0.00 | 0.00 | 97 | 1005.7 |
| 20260510072734 | 10 | 89 | 0.0 | 0.0 | 0.00 | 0.00 | 0.00 | 97 | 1006.0 |
| 20260510072126 | 10 | 89 | 0.0 | 0.0 | 0.00 | 0.00 | 0.00 | 97 | 1006.0 |
| 20260510071546 | 10 | 89 | 0.0 | 0.0 | 0.00 | 0.00 | 0.00 | 97 | 1005.7 |
| 20260510070925 | 10 | 89 | 0.0 | 0.0 | 0.00 | 0.00 | 0.00 | 97 | 1005.7 |
| 20260510070312 | 10 | 89 | 0.0 | 0.0 | 0.00 | 0.00 | 0.00 | 97 | 1005.7 |
| 20260510065734 | 10 | 89 | 0.0 | 0.0 | 0.00 | 0.00 | 0.00 | 97 | 1005.7 |
| 20260510065141 | 10 | 89 | 0.0 | 0.0 | 0.00 | 0.00 | 0.00 | 97 | 1005.7 |
| 20260510063923 | 10 | 89 | 0.0 | 0.0 | 0.00 | 0.00 | 0.00 | 96 | 1006.0 |
| 20260510063330 | 10 | 89 | 0.0 | 0.0 | 0.00 | 0.00 | 0.00 | 96 | 1006.0 |
| 20260510062709 | 10 | 89 | 0.0 | 0.0 | 0.00 | 0.00 | 0.00 | 96 | 1006.0 |
| 20260510062146 | 10 | 89 | 0.0 | 0.0 | 0.00 | 0.00 | 0.00 | 96 | 1006.0 |
| 20260510061534 | 11 | 89 | 0.0 | 0.0 | 0.00 | 0.00 | 0.00 | 95 | 1006.0 |
| 20260510060949 | 11 | 89 | 0.0 | 0.0 | 0.00 | 0.00 | 0.00 | 95 | 1006.0 |
| 20260510060341 | 11 | 89 | 0.0 | 0.0 | 0.00 | 0.00 | 0.00 | 95 | 1006.0 |
| 20260510055437 | 11 | 89 | 0.0 | 0.0 | 0.00 | 0.00 | 0.00 | 96 | 1006.0 |
| 20260510054808 | 11 | 89 | 0.0 | 0.0 | 0.00 | 0.00 | 0.00 | 96 | 1006.0 |
| 20260510053314 | 11 | 89 | 0.0 | 0.0 | 0.00 | 0.00 | 0.00 | 95 | 1006.0 |
| 20260510052149 | 11 | 89 | 0.0 | 4.8 | 0.00 | 0.00 | 0.00 | 96 | 1006.0 |
| 20260510051548 | 11 | 89 | 0.0 | 4.8 | 0.00 | 0.00 | 0.00 | 96 | 1006.0 |
| 20260510050912 | 11 | 88 | 0.0 | 0.0 | 0.00 | 0.00 | 0.00 | 96 | 1006.0 |
| 20260510050332 | 11 | 88 | 0.0 | 0.0 | 0.00 | 0.00 | 0.00 | 96 | 1006.0 |
| 20260510045436 | 11 | 88 | 0.0 | 0.0 | 0.00 | 0.00 | 0.00 | 96 | 1006.4 |
| 20260510044821 | 11 | 88 | 0.0 | 0.0 | 0.00 | 0.00 | 0.00 | 96 | 1006.4 |
| 20260510044242 | 11 | 88 | 0.0 | 0.0 | 0.00 | 0.00 | 0.00 | 95 | 1006.4 |
| 20260510043608 | 11 | 88 | 0.0 | 0.0 | 0.00 | 0.00 | 0.00 | 95 | 1006.4 |
| 20260510043011 | 11 | 88 | 0.0 | 0.0 | 0.00 | 0.00 | 0.00 | 95 | 1006.4 |
| 20260510042453 | 11 | 88 | 0.0 | 0.0 | 0.00 | 0.00 | 0.00 | 95 | 1006.4 |
| 20260510041812 | 11 | 88 | 0.0 | 0.0 | 0.00 | 0.00 | 0.00 | 95 | 1006.4 |
| 20260510041233 | 12 | 88 | 0.0 | 8.0 | 0.00 | 0.00 | 0.00 | 95 | 1006.4 |
| 20260510040650 | 12 | 88 | 0.0 | 8.0 | 0.00 | 0.00 | 0.00 | 95 | 1006.4 |
| 20260510040034 | 12 | 88 | 0.0 | 8.0 | 0.00 | 0.00 | 0.00 | 95 | 1006.4 |
| 20260510035411 | 12 | 88 | 1.6 | 8.0 | 0.00 | 0.00 | 0.00 | 95 | 1006.4 |
| 20260510034832 | 12 | 88 | 1.6 | 8.0 | 0.00 | 0.00 | 0.00 | 95 | 1006.4 |
| 20260510034252 | 12 | 122 | 0.0 | 0.0 | 0.00 | 0.00 | 0.00 | 93 | 1006.4 |
| 20260510033649 | 12 | 122 | 0.0 | 0.0 | 0.00 | 0.00 | 0.00 | 93 | 1006.4 |
| 20260510033031 | 12 | 122 | 0.0 | 0.0 | 0.00 | 0.00 | 0.00 | 93 | 1006.4 |
| 20260510031812 | 12 | 122 | 0.0 | 0.0 | 0.00 | 0.00 | 0.00 | 92 | 1006.4 |
| 20260510030611 | 12 | 122 | 0.0 | 0.0 | 0.00 | 0.00 | 0.00 | 92 | 1006.0 |
| 20260510030049 | 12 | 122 | 0.0 | 0.0 | 0.00 | 0.00 | 0.00 | 92 | 1006.0 |
| 20260510025434 | 12 | 122 | 0.0 | 0.0 | 0.00 | 0.00 | 0.00 | 91 | 1006.0 |
| 20260510024832 | 12 | 122 | 0.0 | 0.0 | 0.00 | 0.00 | 0.00 | 91 | 1006.0 |
| 20260510024246 | 13 | 122 | 0.0 | 0.0 | 0.00 | 0.00 | 0.00 | 90 | 1005.7 |
| 20260510023634 | 13 | 122 | 0.0 | 0.0 | 0.00 | 0.00 | 0.00 | 90 | 1005.7 |
| 20260510023034 | 13 | 122 | 0.0 | 0.0 | 0.00 | 0.00 | 0.00 | 90 | 1005.7 |
| 20260510022416 | 13 | 122 | 0.0 | 0.0 | 0.00 | 0.00 | 0.00 | 89 | 1005.7 |
| 20260510021826 | 13 | 122 | 0.0 | 0.0 | 0.00 | 0.00 | 0.00 | 89 | 1005.7 |
| 20260510021230 | 14 | 122 | 0.0 | 0.0 | 0.00 | 0.00 | 0.00 | 87 | 1005.4 |
| 20260510020622 | 14 | 122 | 0.0 | 0.0 | 0.00 | 0.00 | 0.00 | 87 | 1005.4 |
| 20260510020026 | 14 | 122 | 0.0 | 0.0 | 0.00 | 0.00 | 0.00 | 87 | 1005.4 |
| 20260510015442 | 15 | 122 | 0.0 | 0.0 | 0.00 | 0.00 | 0.00 | 86 | 1005.4 |
| 20260510014852 | 15 | 122 | 0.0 | 0.0 | 0.00 | 0.00 | 0.00 | 86 | 1005.4 |
| 20260510013018 | 16 | 122 | 0.0 | 0.0 | 0.00 | 0.00 | 0.00 | 79 | 1004.7 |
| 20260510012412 | 16 | 122 | 0.0 | 0.0 | 0.00 | 0.00 | 0.00 | 79 | 1004.7 |
| 20260510011251 | 16 | 117 | 1.6 | 4.8 | 0.00 | 0.00 | 0.00 | 78 | 1004.4 |
| 20260510010614 | 16 | 117 | 1.6 | 4.8 | 0.00 | 0.00 | 0.00 | 78 | 1004.4 |
| 20260510010036 | 16 | 117 | 1.6 | 4.8 | 0.00 | 0.00 | 0.00 | 78 | 1004.4 |
| 20260510005413 | 17 | 117 | 0.0 | 3.2 | 0.00 | 0.00 | 0.00 | 75 | 1004.4 |
| 20260510004825 | 17 | 117 | 0.0 | 3.2 | 0.00 | 0.00 | 0.00 | 75 | 1004.4 |
| 20260510003645 | 18 | 117 | 0.0 | 1.6 | 0.00 | 0.00 | 0.00 | 72 | 1004.4 |
| 20260510003033 | 18 | 117 | 0.0 | 1.6 | 0.00 | 0.00 | 0.00 | 72 | 1004.4 |
| 20260510001226 | 20 | 126 | 1.6 | 8.0 | 0.00 | 0.00 | 0.00 | 67 | 1003.7 |
| 20260510000613 | 20 | 126 | 1.6 | 8.0 | 0.00 | 0.00 | 0.00 | 67 | 1003.7 |
| 20260509235444 | 20 | 109 | 0.0 | 6.4 | 0.00 | 0.00 | 0.00 | 66 | 1003.7 |
| 20260509234822 | 20 | 109 | 0.0 | 6.4 | 0.00 | 0.00 | 0.00 | 66 | 1003.7 |
| 20260509234250 | 21 | 96 | 0.0 | 11.3 | 0.00 | 0.00 | 0.00 | 63 | 1003.7 |
| 20260509233643 | 21 | 96 | 0.0 | 11.3 | 0.00 | 0.00 | 0.00 | 63 | 1003.7 |
| 20260509233013 | 21 | 68 | 6.4 | 11.3 | 0.00 | 0.00 | 0.00 | 62 | 1003.7 |
| 20260509232435 | 21 | 68 | 6.4 | 11.3 | 0.00 | 0.00 | 0.00 | 62 | 1003.7 |
| 20260509231852 | 21 | 68 | 6.4 | 11.3 | 0.00 | 0.00 | 0.00 | 62 | 1003.7 |
| 20260509231230 | 21 | 117 | 0.0 | 11.3 | 0.00 | 0.00 | 0.00 | 61 | 1003.7 |
| 20260509230613 | 21 | 117 | 0.0 | 11.3 | 0.00 | 0.00 | 0.00 | 61 | 1003.7 |
| 20260509230052 | 21 | 117 | 0.0 | 11.3 | 0.00 | 0.00 | 0.00 | 61 | 1003.7 |
| 20260509225413 | 21 | 200 | 0.0 | 9.7 | 0.00 | 0.00 | 0.00 | 62 | 1003.7 |
| 20260509224809 | 21 | 200 | 0.0 | 9.7 | 0.00 | 0.00 | 0.00 | 62 | 1003.7 |
| 20260509224244 | 22 | 131 | 0.0 | 8.0 | 0.00 | 0.00 | 0.00 | 60 | 1003.3 |
| 20260509223610 | 22 | 131 | 0.0 | 8.0 | 0.00 | 0.00 | 0.00 | 60 | 1003.3 |
| 20260509223041 | 22 | 131 | 0.0 | 8.0 | 0.00 | 0.00 | 0.00 | 60 | 1003.3 |
| 20260509222426 | 22 | 94 | 1.6 | 14.5 | 0.00 | 0.00 | 0.00 | 59 | 1003.7 |
| 20260509220917 | 22 | 127 | 6.4 | 12.9 | 0.00 | 0.00 | 0.00 | 59 | 1003.7 |
| 20260509220325 | 22 | 127 | 6.4 | 12.9 | 0.00 | 0.00 | 0.00 | 59 | 1003.7 |
| 20260509215723 | 22 | 96 | 4.8 | 14.5 | 0.00 | 0.00 | 0.00 | 58 | 1003.7 |
| 20260509215134 | 22 | 96 | 4.8 | 14.5 | 0.00 | 0.00 | 0.00 | 58 | 1003.7 |
| 20260509214520 | 22 | 96 | 4.8 | 14.5 | 0.00 | 0.00 | 0.00 | 58 | 1003.7 |
| 20260509213334 | 21 | 142 | 4.8 | 14.5 | 0.00 | 0.00 | 0.00 | 60 | 1003.7 |
| 20260509212738 | 21 | 154 | 3.2 | 8.0 | 0.00 | 0.00 | 0.00 | 64 | 1003.7 |
| 20260509212145 | 21 | 154 | 3.2 | 8.0 | 0.00 | 0.00 | 0.00 | 64 | 1003.7 |
| 20260509211542 | 21 | 154 | 3.2 | 8.0 | 0.00 | 0.00 | 0.00 | 64 | 1003.7 |
| 20260509210931 | 21 | 174 | 0.0 | 16.1 | 0.00 | 0.00 | 0.00 | 60 | 1003.7 |
| 20260509210318 | 21 | 174 | 0.0 | 16.1 | 0.00 | 0.00 | 0.00 | 60 | 1003.7 |
| 20260509205747 | 21 | 260 | 4.8 | 12.9 | 0.00 | 0.00 | 0.00 | 62 | 1003.7 |
| 20260509205134 | 21 | 260 | 4.8 | 12.9 | 0.00 | 0.00 | 0.00 | 62 | 1003.7 |
| 20260509204537 | 21 | 260 | 4.8 | 12.9 | 0.00 | 0.00 | 0.00 | 62 | 1003.7 |
| 20260509203950 | 21 | 255 | 4.8 | 17.7 | 0.00 | 0.00 | 0.00 | 61 | 1003.7 |
| 20260509203321 | 21 | 255 | 4.8 | 17.7 | 0.00 | 0.00 | 0.00 | 61 | 1003.7 |
| 20260509202753 | 21 | 126 | 9.7 | 19.3 | 0.00 | 0.00 | 0.00 | 63 | 1003.7 |
| 20260509202126 | 21 | 126 | 9.7 | 19.3 | 0.00 | 0.00 | 0.00 | 63 | 1003.7 |
| 20260509201532 | 21 | 126 | 9.7 | 19.3 | 0.00 | 0.00 | 0.00 | 63 | 1003.7 |
| 20260509200939 | 20 | 78 | 3.2 | 6.4 | 0.00 | 0.00 | 0.00 | 67 | 1003.7 |
| 20260509200309 | 20 | 78 | 3.2 | 6.4 | 0.00 | 0.00 | 0.00 | 67 | 1003.7 |
| 20260509195125 | 20 | 132 | 0.0 | 16.1 | 0.00 | 0.00 | 0.00 | 66 | 1004.4 |
| 20260509193915 | 21 | 59 | 1.6 | 20.9 | 0.00 | 0.00 | 0.00 | 65 | 1004.4 |
| 20260509193337 | 21 | 59 | 1.6 | 20.9 | 0.00 | 0.00 | 0.00 | 65 | 1004.4 |